owner,sensor,date,latitude,longitude,vertical_datum,sea_water_temperature,qcFlag 
TABS,ioos:station:wmo:42051:1,2007-11-14T13:00:00Z,29.6350,-93.6417,-2.0,20.67,11111222 
TABS,ioos:station:wmo:42051:1,2007-11-14T13:30:00Z,29.6350,-93.6417,-2.0,20.61,11111222 
TABS,ioos:station:wmo:42051:1,2007-11-14T14:00:00Z,29.6350,-93.6417,-2.0,20.63,11111222 
TABS,ioos:station:wmo:42051:1,2007-11-14T14:30:00Z,29.6350,-93.6417,-2.0,20.65,11111222 
TABS,ioos:station:wmo:42051:1,2007-11-14T15:00:00Z,29.6350,-93.6417,-2.0,20.69,11111222 
TABS,ioos:station:wmo:42051:1,2007-11-14T15:30:00Z,29.6350,-93.6417,-2.0,20.71,11111222 
TABS,ioos:station:wmo:42051:1,2007-11-14T16:00:00Z,29.6350,-93.6417,-2.0,20.74,11111222 
TABS,ioos:station:wmo:42051:1,2007-11-14T16:30:00Z,29.6350,-93.6417,-2.0,20.76,11111222 
TABS,ioos:station:wmo:42051:1,2007-11-14T17:00:00Z,29.6350,-93.6417,-2.0,20.74,11111222 
TABS,ioos:station:wmo:42051:1,2007-11-14T17:30:00Z,29.6350,-93.6417,-2.0,20.79,11111222 
TABS,ioos:station:wmo:42051:1,2007-11-14T18:00:00Z,29.6350,-93.6417,-2.0,20.93,11111222 
TABS,ioos:station:wmo:42051:1,2007-11-14T18:30:00Z,29.6350,-93.6417,-2.0,21.0,11111222 
TABS,ioos:station:wmo:42051:1,2007-11-14T19:00:00Z,29.6350,-93.6417,-2.0,20.95,11111222 
TABS,ioos:station:wmo:42051:1,2007-11-14T19:30:00Z,29.6350,-93.6417,-2.0,20.97,11111222 
TABS,ioos:station:wmo:42051:1,2007-11-14T20:00:00Z,29.6350,-93.6417,-2.0,21.11,11111222 
TABS,ioos:station:wmo:42051:1,2007-11-14T20:30:00Z,29.6350,-93.6417,-2.0,21.32,11111222 
TABS,ioos:station:wmo:42051:1,2007-11-14T21:00:00Z,29.6350,-93.6417,-2.0,21.31,11111222 
TABS,ioos:station:wmo:42051:1,2007-11-14T21:30:00Z,29.6350,-93.6417,-2.0,21.39,11111222 
TABS,ioos:station:wmo:42051:1,2007-11-14T22:00:00Z,29.6350,-93.6417,-2.0,21.48,11111222 
TABS,ioos:station:wmo:42051:1,2007-11-14T22:30:00Z,29.6350,-93.6417,-2.0,21.55,11111222 
TABS,ioos:station:wmo:42051:1,2007-11-14T23:00:00Z,29.6350,-93.6417,-2.0,21.69,11111222 
TABS,ioos:station:wmo:42051:1,2007-11-14T23:30:00Z,29.6350,-93.6417,-2.0,21.69,11111222 
TABS,ioos:station:wmo:42051:1,2007-11-15T00:00:00Z,29.6350,-93.6417,-2.0,21.75,11111222 
TABS,ioos:station:wmo:42051:1,2007-11-15T00:30:00Z,29.6350,-93.6417,-2.0,21.67,11111222 
TABS,ioos:station:wmo:42051:1,2007-11-15T01:00:00Z,29.6350,-93.6417,-2.0,21.43,11111222 
TABS,ioos:station:wmo:42051:1,2007-11-15T01:30:00Z,29.6350,-93.6417,-2.0,21.05,11111222 
TABS,ioos:station:wmo:42051:1,2007-11-15T02:00:00Z,29.6350,-93.6417,-2.0,21.11,11111222 
TABS,ioos:station:wmo:42051:1,2007-11-15T02:30:00Z,29.6350,-93.6417,-2.0,21.12,11111222 
TABS,ioos:station:wmo:42051:1,2007-11-15T03:00:00Z,29.6350,-93.6417,-2.0,21.07,11111222 
TABS,ioos:station:wmo:42051:1,2007-11-15T03:30:00Z,29.6350,-93.6417,-2.0,21.02,11111222 
TABS,ioos:station:wmo:42051:1,2007-11-15T04:00:00Z,29.6350,-93.6417,-2.0,21.15,11111222 
TABS,ioos:station:wmo:42051:1,2007-11-15T04:30:00Z,29.6350,-93.6417,-2.0,21.25,11111222 
TABS,ioos:station:wmo:42051:1,2007-11-15T05:00:00Z,29.6350,-93.6417,-2.0,21.1,11111222 
TABS,ioos:station:wmo:42051:1,2007-11-15T05:30:00Z,29.6350,-93.6417,-2.0,20.98,11111222 
TABS,ioos:station:wmo:42051:1,2007-11-15T06:00:00Z,29.6350,-93.6417,-2.0,20.89,11111222 
TABS,ioos:station:wmo:42051:1,2007-11-15T06:30:00Z,29.6350,-93.6417,-2.0,20.94,11111222 
TABS,ioos:station:wmo:42051:1,2007-11-15T07:00:00Z,29.6350,-93.6417,-2.0,20.91,11111222 
TABS,ioos:station:wmo:42051:1,2007-11-15T07:30:00Z,29.6350,-93.6417,-2.0,20.96,11111222 
TABS,ioos:station:wmo:42051:1,2007-11-15T08:00:00Z,29.6350,-93.6417,-2.0,21.01,11111222 
TABS,ioos:station:wmo:42051:1,2007-11-15T08:30:00Z,29.6350,-93.6417,-2.0,20.91,11111222 
TABS,ioos:station:wmo:42051:1,2007-11-15T09:00:00Z,29.6350,-93.6417,-2.0,20.88,11111222 
TABS,ioos:station:wmo:42051:1,2007-11-15T09:30:00Z,29.6350,-93.6417,-2.0,20.92,11111222 
TABS,ioos:station:wmo:42051:1,2007-11-15T10:00:00Z,29.6350,-93.6417,-2.0,20.92,11111222 
TABS,ioos:station:wmo:42051:1,2007-11-15T10:30:00Z,29.6350,-93.6417,-2.0,20.99,11111222 
TABS,ioos:station:wmo:42051:1,2007-11-15T11:00:00Z,29.6350,-93.6417,-2.0,21.01,11111222 
TABS,ioos:station:wmo:42051:1,2007-11-15T11:30:00Z,29.6350,-93.6417,-2.0,21.04,11111222 
TABS,ioos:station:wmo:42051:1,2007-11-15T12:00:00Z,29.6350,-93.6417,-2.0,21.05,11111222 
TABS,ioos:station:wmo:42051:1,2007-11-15T12:30:00Z,29.6350,-93.6417,-2.0,21.02,11111222 
TABS,ioos:station:wmo:42051:1,2007-11-15T13:00:00Z,29.6350,-93.6417,-2.0,20.98,11111222 
TABS,ioos:station:wmo:42051:1,2007-11-15T13:30:00Z,29.6350,-93.6417,-2.0,20.93,11111222 
TABS,ioos:station:wmo:42051:1,2007-11-15T21:00:00Z,29.6350,-93.6417,-2.0,20.97,11111222 
TABS,ioos:station:wmo:42051:1,2007-11-15T21:30:00Z,29.6350,-93.6417,-2.0,20.94,11111222 
TABS,ioos:station:wmo:42051:1,2007-11-15T22:00:00Z,29.6350,-93.6417,-2.0,20.96,11111222 
TABS,ioos:station:wmo:42051:1,2007-11-15T22:30:00Z,29.6350,-93.6417,-2.0,20.85,11111222 
TABS,ioos:station:wmo:42051:1,2007-11-15T23:00:00Z,29.6350,-93.6417,-2.0,20.82,11111222 
TABS,ioos:station:wmo:42051:1,2007-11-15T23:30:00Z,29.6350,-93.6417,-2.0,20.84,11111222 
TABS,ioos:station:wmo:42051:1,2007-11-16T00:00:00Z,29.6350,-93.6417,-2.0,20.62,11111222 
TABS,ioos:station:wmo:42051:1,2007-11-16T00:30:00Z,29.6350,-93.6417,-2.0,20.59,11111222 
TABS,ioos:station:wmo:42051:1,2007-11-16T01:00:00Z,29.6350,-93.6417,-2.0,20.56,11111222 
TABS,ioos:station:wmo:42051:1,2007-11-16T01:30:00Z,29.6350,-93.6417,-2.0,20.43,11111222 
TABS,ioos:station:wmo:42051:1,2007-11-16T02:00:00Z,29.6350,-93.6417,-2.0,20.41,11111222 
TABS,ioos:station:wmo:42051:1,2007-11-16T02:30:00Z,29.6350,-93.6417,-2.0,20.33,11111222 
TABS,ioos:station:wmo:42051:1,2007-11-16T03:00:00Z,29.6350,-93.6417,-2.0,20.36,11111222 
TABS,ioos:station:wmo:42051:1,2007-11-16T03:30:00Z,29.6350,-93.6417,-2.0,20.36,11111222 
TABS,ioos:station:wmo:42051:1,2007-11-16T04:00:00Z,29.6350,-93.6417,-2.0,20.36,11111222 
TABS,ioos:station:wmo:42051:1,2007-11-16T04:30:00Z,29.6350,-93.6417,-2.0,20.11,11111222 
TABS,ioos:station:wmo:42051:1,2007-11-16T05:00:00Z,29.6350,-93.6417,-2.0,20.11,11111222 
TABS,ioos:station:wmo:42051:1,2007-11-16T05:30:00Z,29.6350,-93.6417,-2.0,20.12,11111222 
TABS,ioos:station:wmo:42051:1,2007-11-16T06:00:00Z,29.6350,-93.6417,-2.0,20.11,11111222 
TABS,ioos:station:wmo:42051:1,2007-11-16T06:30:00Z,29.6350,-93.6417,-2.0,19.86,11111222 
TABS,ioos:station:wmo:42051:1,2007-11-16T07:00:00Z,29.6350,-93.6417,-2.0,19.91,11111222 
TABS,ioos:station:wmo:42051:1,2007-11-16T07:30:00Z,29.6350,-93.6417,-2.0,19.94,11111222 
TABS,ioos:station:wmo:42051:1,2007-11-16T08:00:00Z,29.6350,-93.6417,-2.0,19.7,11111222 
TABS,ioos:station:wmo:42051:1,2007-11-16T08:30:00Z,29.6350,-93.6417,-2.0,19.79,11111222 
TABS,ioos:station:wmo:42051:1,2007-11-16T09:00:00Z,29.6350,-93.6417,-2.0,19.85,11111222 
TABS,ioos:station:wmo:42051:1,2007-11-16T09:30:00Z,29.6350,-93.6417,-2.0,19.69,11111222 
TABS,ioos:station:wmo:42051:1,2007-11-16T10:00:00Z,29.6350,-93.6417,-2.0,19.76,11111222 
TABS,ioos:station:wmo:42051:1,2007-11-16T10:30:00Z,29.6350,-93.6417,-2.0,19.85,11111222 
TABS,ioos:station:wmo:42051:1,2007-11-16T11:00:00Z,29.6350,-93.6417,-2.0,19.86,11111222 
TABS,ioos:station:wmo:42051:1,2007-11-16T11:30:00Z,29.6350,-93.6417,-2.0,19.87,11111222 
TABS,ioos:station:wmo:42051:1,2007-11-16T12:00:00Z,29.6350,-93.6417,-2.0,19.84,11111222 
TABS,ioos:station:wmo:42051:1,2007-11-16T12:30:00Z,29.6350,-93.6417,-2.0,19.32,11111222 
TABS,ioos:station:wmo:42051:1,2007-11-16T13:00:00Z,29.6350,-93.6417,-2.0,19.3,11111222 
TABS,ioos:station:wmo:42051:1,2007-11-16T13:30:00Z,29.6350,-93.6417,-2.0,19.27,11111222 
TABS,ioos:station:wmo:42051:1,2007-11-16T14:00:00Z,29.6350,-93.6417,-2.0,19.42,11111222 
TABS,ioos:station:wmo:42051:1,2007-11-16T14:30:00Z,29.6350,-93.6417,-2.0,19.53,11111222 
TABS,ioos:station:wmo:42051:1,2007-11-16T15:00:00Z,29.6350,-93.6417,-2.0,19.61,11111222 
TABS,ioos:station:wmo:42051:1,2007-11-16T15:30:00Z,29.6350,-93.6417,-2.0,19.67,11111222 
TABS,ioos:station:wmo:42051:1,2007-11-16T16:00:00Z,29.6350,-93.6417,-2.0,19.83,11111222 
TABS,ioos:station:wmo:42051:1,2007-11-16T16:30:00Z,29.6350,-93.6417,-2.0,19.89,11111222 
TABS,ioos:station:wmo:42051:1,2007-11-16T17:00:00Z,29.6350,-93.6417,-2.0,19.94,11111222 
TABS,ioos:station:wmo:42051:1,2007-11-16T17:30:00Z,29.6350,-93.6417,-2.0,19.93,11111222 
TABS,ioos:station:wmo:42051:1,2007-11-16T18:00:00Z,29.6350,-93.6417,-2.0,19.97,11111222 
TABS,ioos:station:wmo:42051:1,2007-11-16T18:30:00Z,29.6350,-93.6417,-2.0,20.06,11111222 
TABS,ioos:station:wmo:42051:1,2007-11-16T19:00:00Z,29.6350,-93.6417,-2.0,20.1,11111222 
TABS,ioos:station:wmo:42051:1,2007-11-16T19:30:00Z,29.6350,-93.6417,-2.0,20.16,11111222 
TABS,ioos:station:wmo:42051:1,2007-11-16T20:00:00Z,29.6350,-93.6417,-2.0,20.14,11111222 
TABS,ioos:station:wmo:42051:1,2007-11-16T20:30:00Z,29.6350,-93.6417,-2.0,20.1,11111222 
TABS,ioos:station:wmo:42051:1,2007-11-16T21:00:00Z,29.6350,-93.6417,-2.0,20.09,11111222 
TABS,ioos:station:wmo:42051:1,2007-11-16T21:30:00Z,29.6350,-93.6417,-2.0,20.1,11111222 
TABS,ioos:station:wmo:42051:1,2007-11-16T22:00:00Z,29.6350,-93.6417,-2.0,20.08,11111222 
TABS,ioos:station:wmo:42051:1,2007-11-16T22:30:00Z,29.6350,-93.6417,-2.0,20.05,11111222 
TABS,ioos:station:wmo:42051:1,2007-11-16T23:00:00Z,29.6350,-93.6417,-2.0,20.05,11111222 
TABS,ioos:station:wmo:42051:1,2007-11-16T23:30:00Z,29.6350,-93.6417,-2.0,20.04,11111222 
TABS,ioos:station:wmo:42051:1,2007-11-17T00:00:00Z,29.6350,-93.6417,-2.0,20.0,11111222 
TABS,ioos:station:wmo:42051:1,2007-11-17T00:30:00Z,29.6350,-93.6417,-2.0,19.95,11111222 
TABS,ioos:station:wmo:42051:1,2007-11-17T01:00:00Z,29.6350,-93.6417,-2.0,19.98,11111222 
TABS,ioos:station:wmo:42051:1,2007-11-17T01:30:00Z,29.6350,-93.6417,-2.0,20.07,11111222 
TABS,ioos:station:wmo:42051:1,2007-11-17T02:00:00Z,29.6350,-93.6417,-2.0,20.17,11111222 
TABS,ioos:station:wmo:42051:1,2007-11-17T02:30:00Z,29.6350,-93.6417,-2.0,20.18,11111222 
TABS,ioos:station:wmo:42051:1,2007-11-17T03:00:00Z,29.6350,-93.6417,-2.0,20.2,11111222 
TABS,ioos:station:wmo:42051:1,2007-11-17T03:30:00Z,29.6350,-93.6417,-2.0,20.08,11111222 
TABS,ioos:station:wmo:42051:1,2007-11-17T04:00:00Z,29.6350,-93.6417,-2.0,19.98,11111222 
TABS,ioos:station:wmo:42051:1,2007-11-17T04:30:00Z,29.6350,-93.6417,-2.0,19.94,11111222 
TABS,ioos:station:wmo:42051:1,2007-11-17T05:00:00Z,29.6350,-93.6417,-2.0,19.94,11111222 
TABS,ioos:station:wmo:42051:1,2007-11-17T05:30:00Z,29.6350,-93.6417,-2.0,19.93,11111222 
TABS,ioos:station:wmo:42051:1,2007-11-17T06:00:00Z,29.6350,-93.6417,-2.0,19.93,11111222 
TABS,ioos:station:wmo:42051:1,2007-11-17T06:30:00Z,29.6350,-93.6417,-2.0,19.92,11111222 
TABS,ioos:station:wmo:42051:1,2007-11-17T07:00:00Z,29.6350,-93.6417,-2.0,19.93,11111222 
TABS,ioos:station:wmo:42051:1,2007-11-17T07:30:00Z,29.6350,-93.6417,-2.0,19.92,11111222 
TABS,ioos:station:wmo:42051:1,2007-11-17T08:00:00Z,29.6350,-93.6417,-2.0,19.94,11111222 
TABS,ioos:station:wmo:42051:1,2007-11-17T08:30:00Z,29.6350,-93.6417,-2.0,19.96,11111222 
TABS,ioos:station:wmo:42051:1,2007-11-17T09:00:00Z,29.6350,-93.6417,-2.0,19.92,11111222 
TABS,ioos:station:wmo:42051:1,2007-11-17T09:30:00Z,29.6350,-93.6417,-2.0,19.92,11111222 
TABS,ioos:station:wmo:42051:1,2007-11-17T10:00:00Z,29.6350,-93.6417,-2.0,19.92,11111222 
TABS,ioos:station:wmo:42051:1,2007-11-17T10:30:00Z,29.6350,-93.6417,-2.0,19.95,11111222 
TABS,ioos:station:wmo:42051:1,2007-11-17T11:00:00Z,29.6350,-93.6417,-2.0,19.84,11111222 
TABS,ioos:station:wmo:42051:1,2007-11-17T11:30:00Z,29.6350,-93.6417,-2.0,19.88,11111222 
TABS,ioos:station:wmo:42051:1,2007-11-17T12:00:00Z,29.6350,-93.6417,-2.0,19.92,11111222 
TABS,ioos:station:wmo:42051:1,2007-11-17T12:30:00Z,29.6350,-93.6417,-2.0,19.83,11111222 
TABS,ioos:station:wmo:42051:1,2007-11-17T13:00:00Z,29.6350,-93.6417,-2.0,19.76,11111222 
TABS,ioos:station:wmo:42051:1,2007-11-17T13:30:00Z,29.6350,-93.6417,-2.0,19.73,11111222 
TABS,ioos:station:wmo:42051:1,2007-11-17T14:00:00Z,29.6350,-93.6417,-2.0,19.69,11111222 
TABS,ioos:station:wmo:42051:1,2007-11-17T14:30:00Z,29.6350,-93.6417,-2.0,19.69,11111222 
TABS,ioos:station:wmo:42051:1,2007-11-17T15:00:00Z,29.6350,-93.6417,-2.0,19.65,11111222 
TABS,ioos:station:wmo:42051:1,2007-11-17T15:30:00Z,29.6350,-93.6417,-2.0,19.66,11111222 
TABS,ioos:station:wmo:42051:1,2007-11-17T16:00:00Z,29.6350,-93.6417,-2.0,19.71,11111222 
TABS,ioos:station:wmo:42051:1,2007-11-17T16:30:00Z,29.6350,-93.6417,-2.0,19.73,11111222 
TABS,ioos:station:wmo:42051:1,2007-11-17T17:00:00Z,29.6350,-93.6417,-2.0,19.75,11111222 
TABS,ioos:station:wmo:42051:1,2007-11-17T17:30:00Z,29.6350,-93.6417,-2.0,19.81,11111222 
TABS,ioos:station:wmo:42051:1,2007-11-17T18:00:00Z,29.6350,-93.6417,-2.0,19.83,11111222 
TABS,ioos:station:wmo:42051:1,2007-11-17T18:30:00Z,29.6350,-93.6417,-2.0,19.83,11111222 
TABS,ioos:station:wmo:42051:1,2007-11-17T19:00:00Z,29.6350,-93.6417,-2.0,19.82,11111222 
TABS,ioos:station:wmo:42051:1,2007-11-17T19:30:00Z,29.6350,-93.6417,-2.0,19.81,11111222 
TABS,ioos:station:wmo:42051:1,2007-11-17T20:00:00Z,29.6350,-93.6417,-2.0,19.82,11111222 
TABS,ioos:station:wmo:42051:1,2007-11-17T20:30:00Z,29.6350,-93.6417,-2.0,19.81,11111222 
TABS,ioos:station:wmo:42051:1,2007-11-17T21:00:00Z,29.6350,-93.6417,-2.0,19.78,11111222 
TABS,ioos:station:wmo:42051:1,2007-11-17T21:30:00Z,29.6350,-93.6417,-2.0,19.77,11111222 
TABS,ioos:station:wmo:42051:1,2007-11-17T22:00:00Z,29.6350,-93.6417,-2.0,19.76,11111222 
TABS,ioos:station:wmo:42051:1,2007-11-17T22:30:00Z,29.6350,-93.6417,-2.0,19.75,11111222 
TABS,ioos:station:wmo:42051:1,2007-11-17T23:00:00Z,29.6350,-93.6417,-2.0,19.73,11111222 
TABS,ioos:station:wmo:42051:1,2007-11-17T23:30:00Z,29.6350,-93.6417,-2.0,19.7,11111222 
TABS,ioos:station:wmo:42051:1,2007-11-18T00:00:00Z,29.6350,-93.6417,-2.0,19.69,11111222 
TABS,ioos:station:wmo:42051:1,2007-11-18T00:30:00Z,29.6350,-93.6417,-2.0,19.68,11111222 
TABS,ioos:station:wmo:42051:1,2007-11-18T01:00:00Z,29.6350,-93.6417,-2.0,19.7,11111222 
TABS,ioos:station:wmo:42051:1,2007-11-18T01:30:00Z,29.6350,-93.6417,-2.0,19.71,11111222 
TABS,ioos:station:wmo:42051:1,2007-11-18T02:00:00Z,29.6350,-93.6417,-2.0,19.74,11111222 
TABS,ioos:station:wmo:42051:1,2007-11-18T02:30:00Z,29.6350,-93.6417,-2.0,19.78,11111222 
TABS,ioos:station:wmo:42051:1,2007-11-18T03:00:00Z,29.6350,-93.6417,-2.0,19.82,11111222 
TABS,ioos:station:wmo:42051:1,2007-11-18T03:30:00Z,29.6350,-93.6417,-2.0,19.87,11111222 
TABS,ioos:station:wmo:42051:1,2007-11-18T04:00:00Z,29.6350,-93.6417,-2.0,19.94,11111222 
TABS,ioos:station:wmo:42051:1,2007-11-18T04:30:00Z,29.6350,-93.6417,-2.0,19.98,11111222 
TABS,ioos:station:wmo:42051:1,2007-11-18T05:00:00Z,29.6350,-93.6417,-2.0,19.99,11111222 
TABS,ioos:station:wmo:42051:1,2007-11-18T05:30:00Z,29.6350,-93.6417,-2.0,19.98,11111222 
TABS,ioos:station:wmo:42051:1,2007-11-18T06:00:00Z,29.6350,-93.6417,-2.0,20.03,11111222 
TABS,ioos:station:wmo:42051:1,2007-11-18T06:30:00Z,29.6350,-93.6417,-2.0,20.0,11111222 
TABS,ioos:station:wmo:42051:1,2007-11-18T07:00:00Z,29.6350,-93.6417,-2.0,19.89,11111222 
TABS,ioos:station:wmo:42051:1,2007-11-18T07:30:00Z,29.6350,-93.6417,-2.0,19.93,11111222 
TABS,ioos:station:wmo:42051:1,2007-11-18T08:00:00Z,29.6350,-93.6417,-2.0,19.98,11111222 
TABS,ioos:station:wmo:42051:1,2007-11-18T08:30:00Z,29.6350,-93.6417,-2.0,20.03,11111222 
TABS,ioos:station:wmo:42051:1,2007-11-18T09:00:00Z,29.6350,-93.6417,-2.0,20.09,11111222 
TABS,ioos:station:wmo:42051:1,2007-11-18T09:30:00Z,29.6350,-93.6417,-2.0,20.09,11111222 
TABS,ioos:station:wmo:42051:1,2007-11-18T10:00:00Z,29.6350,-93.6417,-2.0,20.07,11111222 
TABS,ioos:station:wmo:42051:1,2007-11-18T10:30:00Z,29.6350,-93.6417,-2.0,20.01,11111222 
TABS,ioos:station:wmo:42051:1,2007-11-18T11:00:00Z,29.6350,-93.6417,-2.0,19.95,11111222 
TABS,ioos:station:wmo:42051:1,2007-11-18T11:30:00Z,29.6350,-93.6417,-2.0,19.9,11111222 
TABS,ioos:station:wmo:42051:1,2007-11-18T12:00:00Z,29.6350,-93.6417,-2.0,19.89,11111222 
TABS,ioos:station:wmo:42051:1,2007-11-18T12:30:00Z,29.6350,-93.6417,-2.0,19.81,11111222 
TABS,ioos:station:wmo:42051:1,2007-11-18T13:00:00Z,29.6350,-93.6417,-2.0,19.79,11111222 
TABS,ioos:station:wmo:42051:1,2007-11-18T13:30:00Z,29.6350,-93.6417,-2.0,19.79,11111222 
TABS,ioos:station:wmo:42051:1,2007-11-18T14:00:00Z,29.6350,-93.6417,-2.0,19.76,11111222 
TABS,ioos:station:wmo:42051:1,2007-11-18T14:30:00Z,29.6350,-93.6417,-2.0,19.75,11111222 
TABS,ioos:station:wmo:42051:1,2007-11-18T15:00:00Z,29.6350,-93.6417,-2.0,19.73,11111222 
TABS,ioos:station:wmo:42051:1,2007-11-18T15:30:00Z,29.6350,-93.6417,-2.0,19.77,11111222 
TABS,ioos:station:wmo:42051:1,2007-11-18T16:00:00Z,29.6350,-93.6417,-2.0,19.76,11111222 
TABS,ioos:station:wmo:42051:1,2007-11-18T16:30:00Z,29.6350,-93.6417,-2.0,19.76,11111222 
TABS,ioos:station:wmo:42051:1,2007-11-18T17:00:00Z,29.6350,-93.6417,-2.0,19.73,11111222 
TABS,ioos:station:wmo:42051:1,2007-11-18T17:30:00Z,29.6350,-93.6417,-2.0,19.73,11111222 
TABS,ioos:station:wmo:42051:1,2007-11-18T18:00:00Z,29.6350,-93.6417,-2.0,19.77,11111222 
TABS,ioos:station:wmo:42051:1,2007-11-18T18:30:00Z,29.6350,-93.6417,-2.0,19.82,11111222 
TABS,ioos:station:wmo:42051:1,2007-11-18T19:00:00Z,29.6350,-93.6417,-2.0,19.86,11111222 
TABS,ioos:station:wmo:42051:1,2007-11-18T19:30:00Z,29.6350,-93.6417,-2.0,19.93,11111222 
TABS,ioos:station:wmo:42051:1,2007-11-18T20:00:00Z,29.6350,-93.6417,-2.0,19.94,11111222 
TABS,ioos:station:wmo:42051:1,2007-11-18T20:30:00Z,29.6350,-93.6417,-2.0,19.96,11111222 
TABS,ioos:station:wmo:42051:1,2007-11-18T21:00:00Z,29.6350,-93.6417,-2.0,19.99,11111222 
TABS,ioos:station:wmo:42051:1,2007-11-18T21:30:00Z,29.6350,-93.6417,-2.0,20.01,11111222 
TABS,ioos:station:wmo:42051:1,2007-11-18T22:00:00Z,29.6350,-93.6417,-2.0,20.0,11111222 
TABS,ioos:station:wmo:42051:1,2007-11-18T22:30:00Z,29.6350,-93.6417,-2.0,20.02,11111222 
TABS,ioos:station:wmo:42051:1,2007-11-18T23:00:00Z,29.6350,-93.6417,-2.0,20.05,11111222 
TABS,ioos:station:wmo:42051:1,2007-11-18T23:30:00Z,29.6350,-93.6417,-2.0,20.08,11111222 
TABS,ioos:station:wmo:42051:1,2007-11-19T00:00:00Z,29.6350,-93.6417,-2.0,20.1,11111222 
TABS,ioos:station:wmo:42051:1,2007-11-19T00:30:00Z,29.6350,-93.6417,-2.0,20.12,11111222 
TABS,ioos:station:wmo:42051:1,2007-11-19T01:00:00Z,29.6350,-93.6417,-2.0,20.13,11111222 
TABS,ioos:station:wmo:42051:1,2007-11-19T01:30:00Z,29.6350,-93.6417,-2.0,20.13,11111222 
TABS,ioos:station:wmo:42051:1,2007-11-19T02:00:00Z,29.6350,-93.6417,-2.0,20.14,11111222 
TABS,ioos:station:wmo:42051:1,2007-11-19T02:30:00Z,29.6350,-93.6417,-2.0,20.14,11111222 
TABS,ioos:station:wmo:42051:1,2007-11-19T03:00:00Z,29.6350,-93.6417,-2.0,20.12,11111222 
TABS,ioos:station:wmo:42051:1,2007-11-19T03:30:00Z,29.6350,-93.6417,-2.0,20.12,11111222 
TABS,ioos:station:wmo:42051:1,2007-11-19T04:00:00Z,29.6350,-93.6417,-2.0,20.13,11111222 
TABS,ioos:station:wmo:42051:1,2007-11-19T04:30:00Z,29.6350,-93.6417,-2.0,20.13,11111222 
TABS,ioos:station:wmo:42051:1,2007-11-19T05:00:00Z,29.6350,-93.6417,-2.0,20.17,11111222 
TABS,ioos:station:wmo:42051:1,2007-11-19T05:30:00Z,29.6350,-93.6417,-2.0,20.09,11111222 
TABS,ioos:station:wmo:42051:1,2007-11-19T06:00:00Z,29.6350,-93.6417,-2.0,19.99,11111222 
TABS,ioos:station:wmo:42051:1,2007-11-19T06:30:00Z,29.6350,-93.6417,-2.0,19.94,11111222 
TABS,ioos:station:wmo:42051:1,2007-11-19T07:00:00Z,29.6350,-93.6417,-2.0,19.92,11111222 
TABS,ioos:station:wmo:42051:1,2007-11-19T07:30:00Z,29.6350,-93.6417,-2.0,19.92,11111222 
TABS,ioos:station:wmo:42051:1,2007-11-19T08:00:00Z,29.6350,-93.6417,-2.0,19.92,11111222 
TABS,ioos:station:wmo:42051:1,2007-11-19T08:30:00Z,29.6350,-93.6417,-2.0,19.89,11111222 
TABS,ioos:station:wmo:42051:1,2007-11-19T09:00:00Z,29.6350,-93.6417,-2.0,19.84,11111222 
TABS,ioos:station:wmo:42051:1,2007-11-19T09:30:00Z,29.6350,-93.6417,-2.0,19.78,11111222 
TABS,ioos:station:wmo:42051:1,2007-11-19T10:00:00Z,29.6350,-93.6417,-2.0,19.78,11111222 
TABS,ioos:station:wmo:42051:1,2007-11-19T10:30:00Z,29.6350,-93.6417,-2.0,19.75,11111222 
TABS,ioos:station:wmo:42051:1,2007-11-19T11:00:00Z,29.6350,-93.6417,-2.0,19.76,11111222 
TABS,ioos:station:wmo:42051:1,2007-11-19T11:30:00Z,29.6350,-93.6417,-2.0,19.73,11111222 
TABS,ioos:station:wmo:42051:1,2007-11-19T12:00:00Z,29.6350,-93.6417,-2.0,19.72,11111222 
TABS,ioos:station:wmo:42051:1,2007-11-19T12:30:00Z,29.6350,-93.6417,-2.0,19.73,11111222 
TABS,ioos:station:wmo:42051:1,2007-11-19T13:00:00Z,29.6350,-93.6417,-2.0,19.72,11111222 
TABS,ioos:station:wmo:42051:1,2007-11-19T13:30:00Z,29.6350,-93.6417,-2.0,19.73,11111222 
TABS,ioos:station:wmo:42051:1,2007-11-19T14:00:00Z,29.6350,-93.6417,-2.0,19.76,11111222 
TABS,ioos:station:wmo:42051:1,2007-11-19T14:30:00Z,29.6350,-93.6417,-2.0,19.79,11111222 
TABS,ioos:station:wmo:42051:1,2007-11-19T15:00:00Z,29.6350,-93.6417,-2.0,19.87,11111222 
TABS,ioos:station:wmo:42051:1,2007-11-19T15:30:00Z,29.6350,-93.6417,-2.0,19.92,11111222 
TABS,ioos:station:wmo:42051:1,2007-11-19T16:00:00Z,29.6350,-93.6417,-2.0,19.99,11111222 
TABS,ioos:station:wmo:42051:1,2007-11-19T16:30:00Z,29.6350,-93.6417,-2.0,20.02,11111222 
TABS,ioos:station:wmo:42051:1,2007-11-19T17:00:00Z,29.6350,-93.6417,-2.0,20.06,11111222 
TABS,ioos:station:wmo:42051:1,2007-11-19T17:30:00Z,29.6350,-93.6417,-2.0,20.1,11111222 
TABS,ioos:station:wmo:42051:1,2007-11-19T18:00:00Z,29.6350,-93.6417,-2.0,20.08,11111222 
TABS,ioos:station:wmo:42051:1,2007-11-19T18:30:00Z,29.6350,-93.6417,-2.0,20.06,11111222 
TABS,ioos:station:wmo:42051:1,2007-11-19T19:00:00Z,29.6350,-93.6417,-2.0,20.15,11111222 
TABS,ioos:station:wmo:42051:1,2007-11-19T19:30:00Z,29.6350,-93.6417,-2.0,20.24,11111222 
TABS,ioos:station:wmo:42051:1,2007-11-19T20:00:00Z,29.6350,-93.6417,-2.0,20.34,11111222 
TABS,ioos:station:wmo:42051:1,2007-11-19T20:30:00Z,29.6350,-93.6417,-2.0,20.36,11111222 
TABS,ioos:station:wmo:42051:1,2007-11-19T21:00:00Z,29.6350,-93.6417,-2.0,20.38,11111222 
TABS,ioos:station:wmo:42051:1,2007-11-19T21:30:00Z,29.6350,-93.6417,-2.0,20.4,11111222 
TABS,ioos:station:wmo:42051:1,2007-11-19T22:00:00Z,29.6350,-93.6417,-2.0,20.47,11111222 
TABS,ioos:station:wmo:42051:1,2007-11-19T22:30:00Z,29.6350,-93.6417,-2.0,20.43,11111222 
TABS,ioos:station:wmo:42051:1,2007-11-19T23:00:00Z,29.6350,-93.6417,-2.0,20.37,11111222 
TABS,ioos:station:wmo:42051:1,2007-11-19T23:30:00Z,29.6350,-93.6417,-2.0,20.3,11111222 
TABS,ioos:station:wmo:42051:1,2007-11-20T00:00:00Z,29.6350,-93.6417,-2.0,20.48,11111222 
TABS,ioos:station:wmo:42051:1,2007-11-20T00:30:00Z,29.6350,-93.6417,-2.0,20.43,11111222 
TABS,ioos:station:wmo:42051:1,2007-11-20T01:00:00Z,29.6350,-93.6417,-2.0,20.4,11111222 
TABS,ioos:station:wmo:42051:1,2007-11-20T01:30:00Z,29.6350,-93.6417,-2.0,20.33,11111222 
TABS,ioos:station:wmo:42051:1,2007-11-20T02:00:00Z,29.6350,-93.6417,-2.0,20.34,11111222 
TABS,ioos:station:wmo:42051:1,2007-11-20T02:30:00Z,29.6350,-93.6417,-2.0,20.36,11111222 
TABS,ioos:station:wmo:42051:1,2007-11-20T03:00:00Z,29.6350,-93.6417,-2.0,20.34,11111222 
TABS,ioos:station:wmo:42051:1,2007-11-20T03:30:00Z,29.6350,-93.6417,-2.0,20.33,11111222 
TABS,ioos:station:wmo:42051:1,2007-11-20T04:00:00Z,29.6350,-93.6417,-2.0,20.32,11111222 
TABS,ioos:station:wmo:42051:1,2007-11-20T04:30:00Z,29.6350,-93.6417,-2.0,20.29,11111222 
TABS,ioos:station:wmo:42051:1,2007-11-20T05:00:00Z,29.6350,-93.6417,-2.0,20.26,11111222 
TABS,ioos:station:wmo:42051:1,2007-11-20T05:30:00Z,29.6350,-93.6417,-2.0,20.25,11111222 
TABS,ioos:station:wmo:42051:1,2007-11-20T06:00:00Z,29.6350,-93.6417,-2.0,20.22,11111222 
TABS,ioos:station:wmo:42051:1,2007-11-20T06:30:00Z,29.6350,-93.6417,-2.0,20.2,11111222 
TABS,ioos:station:wmo:42051:1,2007-11-20T07:00:00Z,29.6350,-93.6417,-2.0,20.2,11111222 
TABS,ioos:station:wmo:42051:1,2007-11-20T07:30:00Z,29.6350,-93.6417,-2.0,20.18,11111222 
TABS,ioos:station:wmo:42051:1,2007-11-20T08:00:00Z,29.6350,-93.6417,-2.0,20.17,11111222 
TABS,ioos:station:wmo:42051:1,2007-11-20T08:30:00Z,29.6350,-93.6417,-2.0,20.17,11111222 
TABS,ioos:station:wmo:42051:1,2007-11-20T09:00:00Z,29.6350,-93.6417,-2.0,20.13,11111222 
TABS,ioos:station:wmo:42051:1,2007-11-20T09:30:00Z,29.6350,-93.6417,-2.0,20.02,11111222 